Theta_e
288 288 288 288 287 287 287 287 287 287 287 287 287 287 287 286 286 286 286 286 286 286 286 286 286 286 286 286 286 286 286 288 292 293 294 295 296 296 297 297 296 296 296
288 288 288 288 288 288 288 288 287 287 286 286 286 286 285 285 285 285 285 285 285 285 285 285 285 285 285 285 285 285 285 285 285 285 286 291 295 295 295 296 297 296 296
288 288 288 288 288 288 288 288 287 287 286 286 285 285 285 285 285 284 284 284 284 284 284 284 285 284 284 284 284 284 284 285 285 284 285 286 287 290 294 294 294 296 296
288 288 288 288 288 288 288 287 287 286 285 285 285 284 284 284 283 283 283 283 283 284 284 284 284 284 284 283 283 284 284 284 284 284 284 285 285 286 287 293 294 293 294
288 289 289 288 288 288 288 287 286 285 285 284 284 284 284 283 283 283 283 283 283 283 282 282 282 282 282 282 281 281 282 282 283 284 284 284 284 285 286 286 290 293 294
289 289 289 288 288 288 287 287 285 284 284 283 283 283 283 283 283 282 281 281 281 280 280 279 277 277 277 277 278 279 280 281 282 283 285 285 285 286 286 286 286 289 291
289 288 288 288 288 287 287 285 284 283 283 282 282 282 283 282 282 281 280 278 278 277 275 274 274 274 273 274 274 275 276 278 279 281 283 284 285 286 286 287 287 287 287
289 288 288 288 288 287 286 284 283 282 282 282 282 282 282 281 280 279 277 276 275 274 273 272 271 271 271 271 272 272 273 274 275 275 278 282 283 284 286 287 287 288 288
288 288 288 287 287 286 283 282 282 281 281 282 281 281 280 280 278 277 274 273 273 272 270 270 270 270 270 271 273 273 273 273 274 275 276 277 279 282 284 285 287 288 288
288 287 287 286 284 283 282 282 281 281 281 281 280 279 279 278 277 274 272 270 269 269 269 270 270 270 271 273 273 273 273 273 272 273 274 275 277 278 281 284 285 287 287
287 287 286 285 283 282 281 281 280 280 280 280 279 279 278 276 275 273 272 269 269 269 270 270 270 271 272 273 273 273 273 273 274 274 274 274 275 277 278 280 283 286 287
286 285 285 283 282 281 281 280 280 280 279 279 278 278 277 275 273 273 270 269 270 271 271 271 272 271 272 273 274 275 275 276 276 275 274 274 274 277 279 279 282 284 286
285 284 282 281 281 280 280 279 279 279 278 278 277 276 276 274 273 271 269 270 271 272 272 272 274 274 275 275 274 274 274 274 274 273 273 273 272 273 275 278 282 283 284
283 282 281 280 279 279 278 278 278 278 277 277 275 274 272 270 269 269 270 272 272 273 273 273 274 275 275 275 274 275 275 275 274 274 273 273 272 272 274 276 280 284 284
282 281 280 279 279 278 278 277 277 277 276 274 271 270 269 269 270 271 272 272 272 273 274 273 273 273 273 273 272 272 273 274 274 274 272 272 272 272 273 275 280 283 284
280 279 279 278 277 277 277 277 276 276 275 274 272 269 269 269 269 270 270 272 272 272 271 271 272 273 273 273 272 272 272 273 273 273 272 272 272 273 274 277 280 284 285
278 278 278 277 277 276 276 276 276 277 275 274 273 272 269 268 268 269 270 270 270 270 271 272 272 272 273 274 274 272 273 273 273 273 273 273 274 275 277 279 280 285 285
278 277 277 276 275 275 275 274 274 274 274 276 274 272 271 270 267 268 268 269 272 272 271 270 271 271 272 273 274 275 275 275 275 275 275 275 276 279 282 281 282 284 285
276 276 275 275 274 274 273 273 273 273 272 272 273 273 272 273 270 270 271 270 270 270 270 270 270 270 271 272 273 275 276 277 277 277 277 278 279 280 282 283 283 283 284
275 275 274 273 273 272 272 272 272 272 271 271 271 270 272 272 271 271 271 270 270 269 269 269 270 270 270 271 272 274 275 276 277 278 279 279 280 280 281 282 283 283 284
274 273 272 272 271 271 271 271 271 271 271 270 270 269 268 268 269 270 270 270 269 269 269 269 269 269 269 270 271 272 274 275 276 277 278 278 279 280 281 281 282 283 283
272 271 271 271 270 270 270 270 270 270 270 270 269 269 269 269 269 269 269 269 269 269 269 269 269 269 269 269 269 271 272 273 274 275 277 277 278 279 279 280 281 282 282
270 270 269 269 269 269 269 269 269 269 269 269 269 269 269 269 269 269 269 269 269 269 269 269 269 269 269 269 269 269 270 271 272 273 274 275 276 277 277 278 279 280 280
268 268 268 269 269 269 269 269 268 268 268 268 268 268 268 268 268 268 269 269 269 269 269 269 269 269 269 270 270 270 270 271 271 272 273 274 275 275 276 276 277 277 278
266 267 267 268 268 268 268 268 268 268 268 268 268 268 268 268 268 268 269 269 269 269 269 269 269 269 269 270 270 270 270 270 271 272 272 273 273 274 274 274 275 275 275
265 266 267 267 267 267 268 268 268 268 268 268 268 268 268 268 268 268 268 269 269 269 269 269 269 269 269 270 270 270 270 270 271 271 271 272 272 273 273 273 273 273 273
Wind_Speed
1 1 3 5 7 9 12 14 16 18 19 21 22 24 26 28 31 33 34 36 37 36 35 37 36 34 34 31 30 29 29 29 39 44 45 48 49 46 44 45 43 43 40
3 3 5 8 11 13 16 18 20 22 22 24 26 29 30 32 35 38 41 41 43 44 45 45 44 42 41 39 37 36 36 35 37 41 40 40 42 44 46 45 48 50 48
4 5 9 13 16 19 21 23 25 27 28 29 32 35 38 42 45 47 47 46 47 47 47 48 49 49 49 45 44 43 41 41 41 42 45 42 42 39 40 45 46 49 51
7 9 13 17 20 22 24 26 27 28 29 31 34 39 42 45 47 49 49 50 50 51 50 51 51 51 52 50 47 45 45 45 45 45 48 48 46 43 40 41 46 47 49
13 15 17 19 21 24 26 28 30 30 32 36 40 41 44 47 49 49 50 52 54 55 56 54 53 51 49 47 41 45 42 45 47 47 50 46 48 46 45 42 43 45 49
20 19 21 23 25 27 29 31 32 33 37 40 41 45 47 47 47 48 50 51 53 54 57 57 55 53 51 43 40 36 35 37 41 40 44 43 49 38 40 43 41 41 45
24 24 26 27 27 28 31 32 33 37 39 40 43 45 47 47 48 50 50 49 50 51 51 50 50 48 46 46 45 39 41 43 41 41 46 49 48 44 36 37 40 42 45
28 28 28 28 30 32 33 33 36 37 39 42 44 44 46 47 48 48 46 45 46 46 44 43 39 39 37 33 34 37 41 45 44 43 49 54 50 48 39 43 42 45 46
31 30 29 29 30 32 31 35 35 38 40 42 43 44 46 47 46 45 41 41 43 42 38 34 33 36 32 29 32 38 42 43 39 36 41 45 50 48 45 42 44 43 45
31 30 28 29 29 29 32 34 35 38 40 41 43 43 44 45 41 39 35 36 37 38 39 37 34 32 30 29 33 38 44 45 44 44 42 44 41 47 51 49 52 46 45
29 28 28 29 29 31 33 32 34 37 39 41 42 43 42 40 38 36 32 29 33 37 40 40 40 35 35 33 33 37 41 41 42 44 47 48 48 45 45 50 51 52 50
27 27 27 27 28 30 32 32 33 35 38 40 41 43 41 38 34 34 31 27 30 35 39 41 45 38 37 38 39 43 43 43 45 43 47 47 45 40 42 45 48 49 51
27 27 27 27 27 28 29 30 32 32 36 39 40 41 42 41 41 39 34 30 32 36 40 41 41 42 43 44 43 43 41 44 49 51 51 51 49 54 42 45 46 50 48
27 27 27 27 27 27 28 29 31 32 34 37 37 39 42 42 38 38 36 42 40 39 41 43 45 42 42 44 48 47 47 48 47 48 49 50 47 46 44 45 42 46 45
28 27 27 27 27 27 27 28 29 29 31 32 32 33 37 38 36 33 35 37 37 38 39 42 44 42 42 44 41 43 47 48 49 50 48 45 43 44 46 52 44 45 42
27 26 26 27 27 27 29 29 24 26 27 26 26 24 27 28 29 31 31 32 34 32 33 33 33 33 36 37 38 37 35 40 43 43 41 42 42 43 41 43 44 47 43
27 26 26 26 26 27 28 29 32 24 22 23 23 24 23 25 26 28 30 29 30 30 26 27 29 30 33 35 36 37 41 33 34 34 34 36 39 45 49 41 44 32 39
26 26 26 25 25 25 26 27 27 28 27 23 20 24 23 24 23 26 24 27 25 23 25 27 29 30 31 32 33 35 34 29 28 30 32 34 33 37 26 35 33 36 41
25 24 24 24 23 24 24 24 23 23 23 23 21 19 21 21 24 24 23 26 28 28 28 29 29 29 30 30 30 30 29 27 26 28 31 32 31 28 25 25 28 30 31
24 24 23 22 22 22 22 21 21 21 21 20 20 21 22 24 25 25 26 26 28 29 30 30 30 29 29 29 29 28 26 24 25 24 26 29 29 27 24 20 26 30 34
23 23 22 21 21 21 19 18 18 19 19 19 18 19 19 20 21 22 24 24 25 26 28 29 30 30 29 29 28 28 26 24 21 19 19 18 21 26 19 16 17 22 28
23 21 21 20 19 19 17 17 17 18 17 18 17 15 17 17 18 19 20 22 22 23 24 26 28 29 30 29 29 28 27 25 22 20 17 15 14 13 15 19 20 22 25
22 21 20 19 18 17 16 15 16 16 17 16 17 17 17 17 18 19 20 21 21 22 23 24 26 28 28 28 27 27 27 24 22 20 17 15 13 10 9 10 14 17 20
20 20 19 18 18 17 16 15 15 16 17 17 17 17 18 18 19 19 20 20 21 21 21 23 23 25 26 27 27 27 27 24 20 17 15 13 11 10 8 7 7 9 13
19 18 18 18 18 17 17 16 16 17 18 19 19 20 19 19 20 20 20 21 21 21 21 21 22 22 24 25 26 28 27 26 19 15 13 11 9 8 6 4 2 4 7
17 17 17 17 17 17 17 16 16 17 18 18 18 19 20 20 20 20 21 21 21 21 21 21 20 20 20 22 23 25 26 25 21 16 13 11 9 8 6 4 2 3 6
Wind_Direction
159 27 5 351 343 338 332 329 327 328 327 326 324 323 322 322 320 318 315 313 310 307 304 302 300 299 296 294 292 291 290 287 281 285 283 283 281 276 268 263 260 258 257
249 295 313 321 323 324 324 325 325 326 326 324 322 320 319 318 316 314 312 309 306 304 303 300 298 296 293 291 288 286 284 284 285 288 288 287 285 282 276 268 261 258 257
264 305 318 318 316 317 318 319 320 320 319 318 319 319 320 318 317 314 312 308 304 302 300 297 296 295 293 291 290 286 283 281 280 283 284 285 285 285 281 273 266 261 257
271 294 300 304 309 313 314 315 314 312 312 313 314 314 314 314 313 312 312 309 307 303 300 297 295 293 293 294 292 287 285 283 280 279 281 282 282 281 280 278 272 265 260
263 278 287 296 304 306 307 308 308 307 308 310 311 310 311 310 310 310 308 306 304 302 300 297 294 292 289 288 287 286 284 282 282 282 279 278 277 277 275 280 278 275 270
259 268 279 288 295 299 303 306 305 306 308 309 310 310 310 309 309 308 306 304 301 298 296 294 292 290 289 287 283 280 277 277 275 274 275 274 273 268 274 276 276 274 269
256 264 273 283 291 297 302 302 303 305 307 309 310 310 310 311 311 309 307 304 300 298 297 297 296 294 291 288 285 281 274 267 262 266 269 267 270 270 268 268 268 268 269
255 263 270 283 293 297 298 300 303 306 309 311 312 311 312 313 313 312 311 306 302 300 299 299 297 297 297 297 296 293 288 283 281 274 261 256 260 262 264 263 262 268 272
255 261 270 283 289 292 296 301 305 308 311 312 312 313 315 315 316 315 314 307 302 300 301 301 298 299 301 297 295 291 288 286 286 279 273 268 264 261 262 259 256 252 253
254 265 277 285 288 293 301 305 308 311 312 312 313 315 316 317 319 319 315 307 304 306 306 307 306 296 297 295 291 291 290 291 292 285 283 276 275 263 253 253 250 249 246
261 271 279 285 290 298 302 304 310 312 313 313 313 315 317 320 322 320 315 306 304 307 308 304 301 301 297 294 290 288 287 296 294 288 288 286 273 272 269 253 249 244 244
268 275 280 282 288 296 301 307 310 312 312 314 315 316 319 322 324 322 319 307 304 299 299 303 306 302 296 292 289 288 286 285 285 284 282 278 275 272 267 262 253 246 243
276 278 280 283 293 298 302 307 310 314 314 314 316 317 320 327 328 331 323 312 308 303 302 302 300 297 296 292 289 288 285 284 283 276 273 276 271 266 267 265 259 250 247
277 280 281 287 295 299 304 309 313 316 314 315 317 322 325 325 321 319 325 322 318 313 309 308 309 303 297 294 293 292 290 285 278 273 273 274 274 271 262 255 260 237 237
279 280 283 291 297 302 307 311 315 315 316 317 318 316 312 312 319 317 313 311 310 310 308 299 298 304 308 309 301 292 291 290 286 285 276 271 269 267 266 247 256 247 234
278 280 286 293 299 305 308 310 312 312 313 315 313 308 310 307 314 314 314 315 312 311 305 304 308 316 322 325 324 314 301 288 283 278 268 273 271 268 266 256 261 227 226
277 281 287 294 300 304 307 310 312 311 312 316 321 326 322 318 320 322 319 317 309 316 315 315 320 324 329 331 332 329 321 312 290 288 283 281 279 275 272 254 251 237 221
278 284 289 294 298 301 303 307 310 315 319 318 320 329 337 335 335 332 334 329 329 331 335 333 332 332 333 334 335 338 331 322 310 300 294 295 296 295 277 244 247 234 222
278 283 287 291 295 298 300 303 308 311 314 319 322 322 329 334 352 344 348 350 351 349 345 342 341 339 337 338 338 337 337 332 320 311 303 298 300 300 305 274 250 244 230
281 283 286 289 292 294 296 300 306 309 313 318 325 330 333 340 343 346 353 355 355 355 354 351 348 345 343 343 342 341 338 335 335 323 312 308 309 304 300 292 240 235 237
277 280 285 287 289 289 292 298 304 307 313 318 324 331 337 327 337 344 348 354 355 356 357 358 358 355 353 349 345 342 341 339 337 329 321 313 305 299 296 285 275 263 250
278 280 281 281 281 282 287 295 301 305 312 315 321 329 328 333 340 345 348 351 353 355 357 356 357 360 360 358 355 346 341 339 338 338 336 335 328 317 305 288 276 260 243
276 276 275 274 275 277 282 288 295 301 307 311 317 322 326 332 338 342 346 348 350 352 353 354 355 358 360 359 2 359 349 342 340 338 336 337 339 334 324 301 277 253 237
270 270 269 269 271 274 278 282 288 295 300 305 310 314 320 326 330 335 338 341 344 348 351 352 354 358 359 0 5 2 358 350 342 342 343 346 348 346 333 307 275 250 232
265 265 268 270 271 271 276 282 289 293 296 299 304 306 313 316 320 325 328 332 335 339 345 348 351 354 357 359 6 8 4 359 352 355 360 2 5 7 6 344 276 216 207
261 265 267 269 271 274 279 285 290 293 295 299 301 306 311 314 318 322 323 325 327 331 336 340 344 348 353 359 5 12 9 7 9 13 20 24 30 37 42 52 83 150 167